Regional Weather Roundup
Issued by NWS

Home | Current Version | Previous Version | Text Only | Print | Product List | Glossary Off
Versions: 1 2 3 4 5 6 7 8 9 10 11 12 13 14 15 16 17 18 19 20 21 22 23 24 25 26 27 28 29 30 31 32 33 34 35 36 37 38 39 40 41 42 43 44 45 46 47 48 49 50

522
ASUS43 KFSD 101010
RWRSD

WEATHER ROUNDUP FOR SOUTH DAKOTA
NATIONAL WEATHER SERVICE SIOUX FALLS SD
400 AM CST SAT DEC 10 2016

NOTE: "FAIR" INDICATES FEW OR NO CLOUDS BELOW 12,000 FEET WITH NO
SIGNIFICANT WEATHER AND/OR OBSTRUCTIONS TO VISIBILITY.


SDZ001>005-009-010-012>017-101100-
NORTHWEST AND NORTH CENTRAL SOUTH DAKOTA

CITY           SKY/WX    TMP DP  RH WIND       PRES   REMARKS
BUFFALO          N/A      0  -5  79 SE13      30.06F WCI -18
FAITH            N/A     -2  -4  91 SE10      30.25F WCI -19
MOBRIDGE       CLOUDY    -6 -13  71 E10       30.38F WCI -24
$$

SDZ012>016-024>037-041>051-057-063-072>074-101100-
SOUTHWEST AND SOUTH CENTRAL SOUTH DAKOTA

CITY           SKY/WX    TMP DP  RH WIND       PRES   REMARKS
RAPID CTY ARPT CLOUDY     3  -2  79 S16       30.12F WCI -16
PIERRE         CLOUDY    -2  -8  76 E9        30.38F WCI -18
CUSTER         CLOUDY    11   7  84 SW3       29.92F
ELLSWORTH AFB  CLOUDY     3  -1  82 SE15      30.10F WCI -15
PHILIP         LGT SNOW   1  -3  83 E10       30.30F FOG     WCI -15
PINE RIDGE     CLOUDY     8   3  80 E7        30.13F WCI  -3
SPEARFISH      CLOUDY     1  -2  85 CALM      30.03F
WINNER         LGT SNOW   6   1  80 E9        30.34F WCI  -8
$$

SDZ004>011-016>023-039-040-101100-
NORTHEAST SOUTH DAKOTA

CITY           SKY/WX    TMP DP  RH WIND       PRES   REMARKS
ABERDEEN       CLOUDY    -7 -15  68 N3        30.51F
WATERTOWN      CLOUDY    -3  -6  87 N3        30.42F
BROOKINGS      CLOUDY     3  -3  76 E5        30.43F WCI  -6
SISSETON         N/A     -9 -14  78 W5        30.51S WCI -20
$$

SDZ017-020-022-023-036>040-048>070-101100-
SOUTHEAST SOUTH DAKOTA

CITY           SKY/WX    TMP DP  RH WIND       PRES   REMARKS
SIOUX FALLS    CLOUDY    10   6  84 NE5       30.44F WCI   2
HURON          CLOUDY    -1  -4  87 N3        30.48F
CHAMBERLAIN    CLOUDY     5   1  85 E5        30.40F WCI  -4
MITCHELL       CLOUDY     7   2  80 NE9       30.46F WCI  -7
YANKTON        CLOUDY    10   7  85 NW6       30.45S WCI   1
$$

ABBREVIATIONS USED IN REMARKS
   TC - TEMPERATURE IN CELSIUS
  WCI - WIND CHILL INDEX
   HX - HEAT INDEX
  VSB - VISIBILITY





USA.gov is the U.S. government's official web portal to all federal, state and local government web resources and services.